sat.trackr.live / text

‹ back to catalog

ION SCV-012

NORAD 60573 · 2024-149DK

PAYLOAD ACTIVE UNKNOWN

§ Identity

Operator
Country
IT
Launch date
2024-08-16
Launch site
AFWTR
Launch vehicle
Mass (kg)
RCS (m²)

External: N2YO · Heavens-Above · Gunter

§ Orbital elements

Epoch: 2026-09-22T16:28:17.990976Z

Period
96.31 min
Inclination
97.6698°
Eccentricity
0.0004765
Mean motion
14.95100570 rev/d
Perigee alt
578.7 km
Apogee alt
585.4 km
Semi-major
6,960.2 km
B*
9.9280e-5
RAAN
337.6205°
Arg perigee
109.4204°
Mean anomaly
250.7532°
Rev number
11,448

§ Raw data

ION SCV-0121 60573U 24149DK  26265.68631934  .00001032  00000+0  99280-4 0  99992 60573  97.6698 337.6205 0004765 109.4204 250.7532 14.95100570114480

JSON: /api/v1/satellites/60573 · /tle

For live sub-satellite position, see the globe view (requires WebGL).

§ Visibility from observer

Set your observer location to see the next 7 days of passes ≥ 10°. The values pass through the URL so the page stays shareable.

No JS? Fill the form by hand. The geolocation button needs JavaScript.

§ Radio — SatNOGS DB

ModeDescriptionDownlinkUplink
BPSK Mode S - Transmitter 2.268 GHz
FSK AX.100 Mode 5 Mode U - FSK1k2 AX.100 401.415 MHz

2 transmitters · refreshed weekly from db.satnogs.org